When you browse on this site, cookies collect data to enhance your experience and personalize the content and advertising you see.
Visit our Privacy Policy to learn more. By continuing to use the site, you agree to this use of cookies and data.
  • In Österreich
  • Länderverzeichnis
  • Für 7 Tage
  • Wassertemperatur
  • Satellitenkarten
  • Wetterkarte
  • News
  • Widgets
  • user-avatar
    Anmelden

    Stündliche Wetter Rohizna

    Heute, 20 Mai, Montag

    Zeit Temperatur Niederschläge Wind Luftdruck Luftfeuchtigkeit
    00:00 +18°C° 0 mm 3 m/S 739 mmHg 92%
    01:00 +17°C° 0 mm 3 m/S 739 mmHg 93%
    02:00 +17°C° 0 mm 3 m/S 739 mmHg 94%
    03:00 +17°C° 0.6 mm 3 m/S 739 mmHg 94%
    04:00 +17°C° 0.6 mm 3 m/S 739 mmHg 94%
    05:00 +17°C° 0.6 mm 4 m/S 740 mmHg 94%
    06:00 +17°C° 0.1 mm 5 m/S 740 mmHg 90%
    07:00 +20°C° 0.1 mm 5 m/S 740 mmHg 85%
    08:00 +22°C° 0 mm 6 m/S 740 mmHg 82%
    09:00 +22°C° 1.5 mm 7 m/S 740 mmHg 79%
    10:00 +23°C° 1.5 mm 8 m/S 740 mmHg 77%
    11:00 +24°C° 1.5 mm 8 m/S 740 mmHg 75%
    12:00 +24°C° 1.5 mm 8 m/S 740 mmHg 75%
    13:00 +24°C° 1.5 mm 8 m/S 739 mmHg 76%
    14:00 +24°C° 0 mm 7 m/S 740 mmHg 77%
    15:00 +24°C° 1 mm 6 m/S 739 mmHg 78%
    16:00 +23°C° 1 mm 6 m/S 739 mmHg 80%
    17:00 +23°C° 1 mm 6 m/S 739 mmHg 81%
    18:00 +22°C° 0.1 mm 6 m/S 739 mmHg 84%
    19:00 +21°C° 0.1 mm 6 m/S 739 mmHg 86%
    20:00 +20°C° 0.1 mm 5 m/S 739 mmHg 89%
    21:00 +19°C° 0 mm 6 m/S 739 mmHg 88%
    22:00 +19°C° 0 mm 6 m/S 739 mmHg 86%
    23:00 +17°C° 0 mm 6 m/S 739 mmHg 85%

    Morgen, 21 Mai, Dienstag

    Zeit Temperatur Niederschläge Wind Luftdruck Luftfeuchtigkeit
    00:00 +17°C° 0 mm 6 m/S 738 mmHg 86%
    01:00 +16°C° 0 mm 6 m/S 738 mmHg 87%
    02:00 +16°C° 0 mm 6 m/S 738 mmHg 89%
    03:00 +16°C° 0 mm 7 m/S 738 mmHg 89%
    04:00 +15°C° 0 mm 7 m/S 738 mmHg 89%
    05:00 +15°C° 0 mm 7 m/S 737 mmHg 89%
    06:00 +16°C° 0 mm 7 m/S 737 mmHg 88%
    07:00 +16°C° 0 mm 8 m/S 737 mmHg 87%
    08:00 +17°C° 0 mm 8 m/S 737 mmHg 85%
    09:00 +17°C° 0.1 mm 8 m/S 737 mmHg 85%
    10:00 +17°C° 0.1 mm 7 m/S 737 mmHg 85%
    11:00 +18°C° 0.1 mm 7 m/S 737 mmHg 84%
    12:00 +20°C° 0.3 mm 7 m/S 737 mmHg 77%
    13:00 +22°C° 0.3 mm 7 m/S 737 mmHg 71%
    14:00 +23°C° 0.3 mm 7 m/S 737 mmHg 64%
    15:00 +22°C° 0.5 mm 6 m/S 737 mmHg 67%
    16:00 +22°C° 0.5 mm 6 m/S 737 mmHg 69%
    17:00 +21°C° 0.5 mm 5 m/S 737 mmHg 72%
    18:00 +19°C° 0.1 mm 4 m/S 737 mmHg 78%
    19:00 +18°C° 0.1 mm 3 m/S 737 mmHg 84%
    20:00 +16°C° 0.1 mm 3 m/S 737 mmHg 89%
    21:00 +15°C° 0 mm 2 m/S 737 mmHg 91%
    22:00 +14°C° 0 mm 2 m/S 738 mmHg 92%
    23:00 +13°C° 0 mm 2 m/S 738 mmHg 93%

    übermorgen, 22 Mai, Mittwoch

    Zeit Temperatur Niederschläge Wind Luftdruck Luftfeuchtigkeit
    00:00 +13°C° 0 mm 2 m/S 738 mmHg 92%
    01:00 +13°C° 0 mm 1 m/S 738 mmHg 91%
    02:00 +12°C° 0 mm 1 m/S 738 mmHg 89%
    03:00 +12°C° 0 mm 1 m/S 738 mmHg 88%
    04:00 +12°C° 0 mm 1 m/S 738 mmHg 86%
    05:00 +12°C° 0 mm 1 m/S 738 mmHg 85%
    06:00 +14°C° 0 mm 2 m/S 738 mmHg 80%
    07:00 +16°C° 0 mm 2 m/S 739 mmHg 75%
    08:00 +18°C° 0 mm 2 m/S 739 mmHg 70%
    09:00 +19°C° 0 mm 2 m/S 739 mmHg 66%
    10:00 +20°C° 0 mm 3 m/S 739 mmHg 62%
    11:00 +21°C° 0 mm 3 m/S 739 mmHg 58%
    12:00 +22°C° 0.2 mm 3 m/S 739 mmHg 59%
    13:00 +22°C° 0.2 mm 4 m/S 739 mmHg 60%
    14:00 +22°C° 0.2 mm 4 m/S 738 mmHg 60%
    15:00 +22°C° 0.4 mm 4 m/S 738 mmHg 63%
    16:00 +21°C° 0.4 mm 3 m/S 738 mmHg 65%
    17:00 +21°C° 0.4 mm 3 m/S 738 mmHg 67%
    18:00 +20°C° 0.1 mm 2 m/S 738 mmHg 72%
    19:00 +19°C° 0.1 mm 1 m/S 738 mmHg 76%
    20:00 +18°C° 0.1 mm 1 m/S 738 mmHg 80%
    21:00 +16°C° 0.5 mm 1 m/S 738 mmHg 83%
    22:00 +15°C° 0.5 mm 1 m/S 738 mmHg 85%
    23:00 +15°C° 0.5 mm 1 m/S 738 mmHg 87%

    23 Mai, Donnerstag

    Zeit Temperatur Niederschläge Wind Luftdruck Luftfeuchtigkeit
    00:00 +14°C° 0.5 mm 1 m/S 738 mmHg 88%
    01:00 +14°C° 0.5 mm 1 m/S 738 mmHg 89%
    02:00 +14°C° 0.5 mm 1 m/S 738 mmHg 90%
    03:00 +14°C° 0.1 mm 1 m/S 738 mmHg 89%
    04:00 +14°C° 0.1 mm 1 m/S 738 mmHg 89%
    05:00 +13°C° 0.1 mm 1 m/S 738 mmHg 88%
    06:00 +15°C° 0 mm 1 m/S 738 mmHg 84%
    07:00 +18°C° 0 mm 1 m/S 738 mmHg 80%
    08:00 +19°C° 0 mm 2 m/S 738 mmHg 76%
    09:00 +20°C° 0 mm 2 m/S 738 mmHg 72%
    10:00 +21°C° 0 mm 3 m/S 738 mmHg 68%
    11:00 +22°C° 0 mm 4 m/S 738 mmHg 65%
    12:00 +22°C° 0.7 mm 4 m/S 738 mmHg 65%
    13:00 +22°C° 0.7 mm 4 m/S 738 mmHg 66%
    14:00 +22°C° 0.7 mm 4 m/S 738 mmHg 67%
    15:00 +22°C° 0.8 mm 4 m/S 738 mmHg 69%
    16:00 +21°C° 0.8 mm 3 m/S 737 mmHg 71%
    17:00 +21°C° 0.8 mm 3 m/S 737 mmHg 72%
    18:00 +20°C° 0.5 mm 3 m/S 737 mmHg 78%
    19:00 +18°C° 0.5 mm 3 m/S 737 mmHg 83%
    20:00 +17°C° 0.5 mm 3 m/S 737 mmHg 88%
    21:00 +16°C° 0 mm 3 m/S 737 mmHg 90%
    22:00 +14°C° 0 mm 3 m/S 737 mmHg 92%
    23:00 +13°C° 0 mm 3 m/S 737 mmHg 94%

    24 Mai, Freitag

    Zeit Temperatur Niederschläge Wind Luftdruck Luftfeuchtigkeit
    00:00 +13°C° 0 mm 3 m/S 737 mmHg 95%
    01:00 +13°C° 0 mm 3 m/S 737 mmHg 96%
    02:00 +12°C° 0 mm 3 m/S 737 mmHg 97%
    03:00 +12°C° 0 mm 3 m/S 737 mmHg 97%
    04:00 +12°C° 0 mm 3 m/S 737 mmHg 97%
    05:00 +12°C° 0 mm 2 m/S 737 mmHg 97%
    06:00 +13°C° 0 mm 3 m/S 737 mmHg 94%
    07:00 +14°C° 0 mm 3 m/S 738 mmHg 90%
    08:00 +16°C° 0 mm 3 m/S 738 mmHg 87%
    09:00 +17°C° 0 mm 3 m/S 738 mmHg 84%
    10:00 +18°C° 0 mm 3 m/S 738 mmHg 82%
    11:00 +18°C° 0 mm 4 m/S 738 mmHg 79%
    12:00 +19°C° 0.1 mm 4 m/S 738 mmHg 77%
    13:00 +19°C° 0.1 mm 3 m/S 737 mmHg 74%
    14:00 +20°C° 0.1 mm 3 m/S 737 mmHg 72%
    15:00 +20°C° 0.1 mm 3 m/S 737 mmHg 74%
    16:00 +19°C° 0.1 mm 3 m/S 737 mmHg 76%
    17:00 +19°C° 0.1 mm 3 m/S 737 mmHg 78%
    18:00 +18°C° 0 mm 3 m/S 737 mmHg 83%
    19:00 +16°C° 0 mm 2 m/S 737 mmHg 87%
    20:00 +15°C° 0 mm 2 m/S 737 mmHg 92%
    21:00 +14°C° 0 mm 2 m/S 737 mmHg 93%
    22:00 +13°C° 0 mm 2 m/S 737 mmHg 93%
    23:00 +13°C° 0 mm 2 m/S 737 mmHg 94%

    25 Mai, Samstag

    Zeit Temperatur Niederschläge Wind Luftdruck Luftfeuchtigkeit
    00:00 +12°C° 0 mm 2 m/S 737 mmHg 95%
    01:00 +12°C° 0 mm 2 m/S 737 mmHg 95%
    02:00 +12°C° 0 mm 2 m/S 736 mmHg 96%
    03:00 +12°C° 0 mm 2 m/S 736 mmHg 96%
    04:00 +12°C° 0 mm 2 m/S 736 mmHg 96%
    05:00 +12°C° 0 mm 2 m/S 736 mmHg 97%
    06:00 +13°C° 0 mm 2 m/S 736 mmHg 92%
    07:00 +15°C° 0 mm 2 m/S 737 mmHg 88%
    08:00 +17°C° 0 mm 2 m/S 737 mmHg 84%
    09:00 +18°C° 0.2 mm 3 m/S 737 mmHg 82%
    10:00 +18°C° 0.2 mm 4 m/S 737 mmHg 81%
    11:00 +19°C° 0.2 mm 4 m/S 737 mmHg 79%
    12:00 +20°C° 0.5 mm 4 m/S 736 mmHg 75%
    13:00 +20°C° 0.5 mm 5 m/S 736 mmHg 72%
    14:00 +21°C° 0.5 mm 5 m/S 736 mmHg 68%
    15:00 +21°C° 0.6 mm 5 m/S 736 mmHg 70%
    16:00 +20°C° 0.6 mm 4 m/S 736 mmHg 73%
    17:00 +20°C° 0.6 mm 4 m/S 736 mmHg 75%
    18:00 +19°C° 0.1 mm 4 m/S 736 mmHg 79%
    19:00 +17°C° 0.1 mm 3 m/S 736 mmHg 84%
    20:00 +16°C° 0.1 mm 2 m/S 736 mmHg 88%
    21:00 +15°C° 0 mm 2 m/S 737 mmHg 89%
    22:00 +15°C° 0 mm 2 m/S 737 mmHg 90%
    23:00 +13°C° 0 mm 3 m/S 737 mmHg 91%
    Mehr zeigen